COSMOS 2251 DEB

Satellite information

Favourite Embed

Satellite Type and Status

DEBRISIN ORBIT

Key statistics

Satellite COSMOS 2251 DEB at a glance.

Uptime

11817

Days in orbit

Revolutions

≈ 14.4

Per day

Orbit

LEO

Low Earth Orbit

Inclination

74.0

Latest

Satellite identification and parameters

Extended collection of information and parameters for COSMOS 2251 DEB.

Object identification

Identified? True

Debris? True

Object name: COSMOS 2251 DEB

International designator: 1993-036HJ

Object number (NORAD): 34023

Object ID (CCSDS): 34023

Country: COMMONWEALTH OF INDEPENDENT STATES (CIS)

Current information (Y/N): Y

RCS size: SMALL

Orbital parameters

Period: 99.973 minutes

Inclination: 74.0265 deg

SMA: 7135.334 km

Apoapsis: 769.323 km

Periapsis: 745.075 km

RAAN: 347.979 deg

Eccentricy: 0.0016991

Argument of periapsis: 99.8931 deg

Mean anomaly: 14.2128 deg

Mean motion: 14.40393971 rev/day

Mean motion (dot): 0.00001453 rev/day2

B* drag term: 0.00046514 1/REarth

Two-line elements (TLE)

Creation date: Oct. 21, 2025, 11:56 p.m.

Reference frame: TEME

Reference center: EARTH

Epoch: Oct. 21, 2025, 5:36 p.m. UTC

TLE line 0: 0 COSMOS 2251 DEB

TLE line 1: 1 34023U 93036HJ 25294.73345985 .00001453 00000-0 46514-3 0 9995

TLE line 2: 2 34023 74.0265 347.9790 0016991 99.8931 14.2128 14.40393971874651

Live tracking on map

Real-time ground track for satellite COSMOS 2251 DEB.

In-orbit conjunctions

A list of the most updated potential collisions computed for object COSMOS 2251 DEB.

Target Orbit TCA Probability of collision Miss distance Type
COSMOS 468 DEB LEO 2024-11-12 10:20:47 0.0004364245 902.0 (m) DEBRIS
PSLV R/B LEO 2024-07-28 05:53:47 0.0001799246 218.0 (m) ROCKET BODY

Associated space launch

Military communications satellite. Destroyed in a collision with Iridium 33.

COSMOS 2251 DEB was lifted into orbit during the mission ‘Kosmos-3M | Strela-2M 51’, on board a Kosmos-3M space rocket.

The launch took place on June 16, 1993, 4:17 a.m. from 132/1 (132L).

For more information about the launch, click the button.

Launch to space Kosmos-3M | Strela-2M 51
Kosmos-3M | Strela-2M 51

Agency: N/A

Status: Launch Successful

Launch date: June 16, 1993, 4:17 a.m. UTC

Rocket: Kosmos-3M

Launch pad: 132/1 (132L)

Location: Plesetsk Cosmodrome, Russian Federation

...

Latest news about this satellite

There are no fresh news available about this satellite. Check back as we update our databases every day.


Newsletter sign-up

Weekly statistics, charts and insights to help you stay on top of the space industry.